{"data":{"norad_id":65022,"epoch":"2026-09-19T23:54:44.903520Z","epoch_age_seconds":167685,"freshness":"FRESH","line1":"1 65022U 25161H   26262.99635305 -.00011927  00000+0 -34287-3 0  9996","line2":"2 65022  53.1572 109.9278 0001265  84.2557 275.8590 15.34356789 65098","mean_motion":15.34356789,"eccentricity":0.0001265,"inclination_deg":53.1572,"raan_deg":109.9278,"arg_perigee_deg":84.2557,"mean_anomaly_deg":275.859,"bstar":-0.00034287,"rev_number":6509,"period_min":93.850401049061,"perigee_km":461.96629288208,"apogee_km":463.69705795696,"semimajor_km":6840.9686754195,"source":"CELESTRAK","updated_at":"2026-09-21T09:00:35.492998Z"}}